Regional Weather Roundup
Issued by NWS

Home | Current Version | Previous Version | Graphics & Text | Print | Product List | Glossary On
Versions: 1 2 3 4 5 6 7 8 9 10 11 12 13 14 15 16 17 18 19 20 21 22 23 24 25 26 27 28 29 30 31 32 33 34 35 36 37 38 39 40 41 42 43 44 45 46 47 48 49 50
000
ASUS43 KLOT 270010
RWRIL

ILLINOIS REGIONAL WEATHER ROUNDUP
NATIONAL WEATHER SERVICE CHICAGO/ROMEOVILLE IL
600 PM CST WED NOV 26 2014

NOTE: "FAIR" INDICATES FEW OR NO CLOUDS BELOW 12,000 FEET WITH NO
SIGNIFICANT WEATHER AND/OR OBSTRUCTIONS TO VISIBILITY.

* THESE STATIONS ARE NOT UNDER NWS QUALITY CONTROL. THEY ALSO MAY NOT
  REPORT WEATHER SUCH AS PRECIPITATION OR FOG.

ILZ001-002-007-009-015-016-024-270100-
NORTHWEST ILLINOIS

CITY           SKY/WX    TMP DP  RH WIND       PRES   REMARKS
MOLINE         CLOUDY    28  22  78 NE10      30.15R WCI  19
6HR MIN TEMP:  28; 6HR MAX TEMP:  29;

STERLING*      CLOUDY    25  19  80 NE9       30.15R WCI  15
SAVANNA*       CLOUDY    27  21  78 NE6       30.17R WCI  20
$$

ILZ003-004-008-010-011-017-018-270100-
NORTH CENTRAL ILLINOIS

CITY           SKY/WX    TMP DP  RH WIND       PRES   REMARKS
ROCKFORD       CLOUDY    27  19  72 N7        30.16R WCI  19
6HR MIN TEMP:  25; 6HR MAX TEMP:  27;

FREEPORT*      CLOUDY    25  20  82 N5        30.17R WCI  19
ROCHELLE*      CLOUDY    24  20  85 N5        30.14S WCI  18
DE KALB*       CLOUDY    24  20  85 NW3       30.13R
PERU*          CLOUDY    28  23  82 NE7       30.13R WCI  20
$$

ILZ005-006-012>014-019>023-270100-
NORTHEAST ILLINOIS

CITY           SKY/WX    TMP DP  RH WIND       PRES   REMARKS
CHICAGO-OHARE  CLOUDY    29  21  72 CALM      30.12R
6HR MIN TEMP:  27; 6HR MAX TEMP:  29;

CHICAGO-MIDWAY CLOUDY    30  21  69 NE7       30.12S WCI  23
6HR MIN TEMP:  27; 6HR MAX TEMP:  30;

AURORA         CLOUDY    23  18  81 NW5       30.13R WCI  17
6HR MIN TEMP:  21; 6HR MAX TEMP:  28;

LANSING*       CLOUDY    28  20  73 NE6       30.13R WCI  21
JOLIET*        CLOUDY    26  19  77 NE3       30.13S
WAUKEGAN       CLOUDY    27  22  81 NW6       30.12S WCI  20
6HR MIN TEMP:  26; 6HR MAX TEMP:  29;

DUPAGE AIRPORT CLOUDY    27  20  75 N3        30.11S
6HR MIN TEMP:  24; 6HR MAX TEMP:  28;

KANKAKEE*      CLOUDY   N/A N/A N/A NE7       30.12S
WHEELING       CLOUDY    29  23  78 N5        30.14S WCI  24
6HR MIN TEMP:  27; 6HR MAX TEMP:  29;

MORRIS*        CLOUDY    27  21  80 NE3       30.13R
ROMEOVILLE*    CLOUDY    26  19  77 E3        30.12S
NORTHERLY ISL    N/A     29  21  72 E7          N/A  WCI  22
$$

LMZ740>746-270100-
SOUTHERN LAKE MICHIGAN

STATION/POSITION SKY/WX   TEMP    WIND        PRES    VSBY  WAVE
                          AIR SEA DIR/SP/G                  HT/PER
                          (F)     (DEG/KT/KT) (MB)    (MI)  (FT/S)
SOUTHERN BUOY              32 42  190/  2/  4 1021.1R         1/ 3
WAUKEGAN HARBOR            28     320/  9/ 10   N/A
HARRISON CRIB              29      50/  6/  8   N/A
BURNHAM HARBOR             29      40/  4/  9   N/A
CALUMET HARBOR             29      20/  6/  9 1018.9R
MICHIGAN CITY              27      60/  7/  9   N/A
$$

ILZ025>027-034>036-040-047-049-050-058-095>099-270100-
WEST-CENTRAL ILLINOIS

CITY           SKY/WX    TMP DP  RH WIND       PRES   REMARKS
QUINCY         CLOUDY    32  30  92 E9        30.05R FOG     WCI  24
GALESBURG*     CLOUDY    29  26  88 NE8       30.11R WCI  21
MACOMB*        LGT SNOW  29  29 100 NE8       30.11R WCI  21
JACKSONVILLE*  MIX PCPN  32  31  94 E9        30.06R WCI  24
PITTSFIELD*    CLOUDY    33  32  96 E5        30.05R WCI  28
$$

ILZ028>032-037-038-041>044-048-051>054-059>061-270100-
CENTRAL ILLINOIS

CITY           SKY/WX    TMP DP  RH WIND       PRES   REMARKS
PONTIAC        CLOUDY    29  25  85 NE8       30.12R WCI  21
BLOOMINGTON    CLOUDY    28  25  89 E10       30.09R WCI  19
DECATUR        LGT SNOW  29  26  89 E8        30.08R FOG     WCI  21
PEORIA         CLOUDY    30  23  75 NE10      30.11R WCI  21
6HR MIN TEMP:  30; 6HR MAX TEMP:  32; 6HR PCP: TRACE;

LACON*         CLOUDY    27  23  83 NE3       30.12R
LINCOLN*       LGT SNOW  30  28  90 E8        30.10R WCI  23
SPRINGFIELD    LGT SNOW  30  29  96 E9        30.08R VSB 1   WCI  22
6HR MIN TEMP:  30; 6HR MAX TEMP:  34; 6HR PCP:  0.08;

TAYLORVILLE    LGT SNOW  30  28  93 E8        30.06R WCI  23
$$

ILZ033-039-045-046-055>057-062-063-270100-
EAST-CENTRAL ILLINOIS

CITY           SKY/WX    TMP DP  RH WIND       PRES   REMARKS
CHAMPAIGN      CLOUDY    29  24  82 NE6       30.08R WCI  23
DANVILLE*      CLOUDY    29  24  82 NE7       30.06R WCI  22
RANTOUL*       CLOUDY    31  25  80 NE6       30.08S WCI  25
MATTOON        CLOUDY    30  25  81 NE6       30.06R WCI  24
PARIS*         CLOUDY    32  27  80 CALM      30.07S
$$

ILZ079-100>102-270100-
SOUTHWEST ILLINOIS

CITY           SKY/WX    TMP DP  RH WIND       PRES   REMARKS
ALTON          CLOUDY    32  32 100 E6        30.05R FOG     WCI  26
BELLEVILLE     LGT SNOW  33  33 100 E3        30.04R FOG
CAHOKIA*       CLOUDY    33  33 100 CALM      30.05R FOG
SPARTA*        LGT SNOW  32  32 100 CALM      30.05R
$$

ILZ064>066-069>071-074>076-080>082-084>086-088>090-092>094-270100-
SOUTH-CENTRAL ILLINOIS

CITY           SKY/WX    TMP DP  RH WIND       PRES   REMARKS
CARBONDALE     CLOUDY    32  31  96 CALM      30.04R FOG
6HR MIN TEMP:  32; 6HR MAX TEMP:  40; 6HR PCP:  0.18;

CAIRO*         MOCLDY    40  35  84 W10       30.04R
EFFINGHAM*     LGT SNOW  31  29  91 NE5       30.07R VSB 1   WCI  26
MARION         LGT SNOW  34  32  93 CALM      30.03S VSB 1
MT. VERNON     CLOUDY    32  28  86 NE5       30.04S WCI  27
CENTRALIA*     LGT SNOW  32  31  96 CALM      30.04S
SALEM*         LGT SNOW  34  32  94 NE5       30.05S WCI  30
METROPOLIS*    DRIZZLE   38  38 100 SW3         N/A
$$

ILZ067-068-072-073-078-083-087-091-270100-
SOUTHEAST ILLINOIS

CITY           SKY/WX    TMP DP  RH WIND       PRES   REMARKS
LAWRENCEVILLE  CLOUDY    36  29  75 N6        30.07R WCI  31
FLORA*         SNOW      32  32 100 NE3       30.06S VSB 1/2
FAIRFIELD*     LGT SNOW  32  32  99 CALM      30.04S VSB 3/4
HARRISBURG*    LGT SNOW  32  32 100 CALM      30.04S
ROBINSON*      CLOUDY    34  28  79 NW5       30.08R WCI  30
CARMI*         SNOW      34  34 100 CALM      30.05R VSB 1/2
$$

ABBREVIATIONS USED IN REMARKS
   TC - TEMPERATURE IN CELSIUS
  WCI - WIND CHILL INDEX
   HX - HEAT INDEX
  VSB - VISIBILITY
$$



USA.gov is the U.S. government's official web portal to all federal, state and local government web resources and services.